Regional Weather Roundup
Issued by NWS

Home | Current Version | Previous Version | Graphics & Text | Print | Product List | Glossary On
Versions: 1 2 3 4 5 6 7 8 9 10 11 12 13 14 15 16 17 18 19 20 21 22 23 24 25 26 27 28 29 30 31 32 33 34 35 36 37 38 39 40 41 42 43 44 45 46 47 48 49 50
000
ASUS45 KCYS 181210
RWRWY

WYOMING REGIONAL WEATHER ROUNDUP
NATIONAL WEATHER SERVICE CHEYENNE WY
600 AM MDT THU SEP 18 2014

NOTE:  "FAIR" INDICATES FEW OR NO CLOUDS BELOW 12,000 FEET
WITH NO SIGNIFICANT WEATHER AND/OR OBSTRUCTIONS TO VISIBILITY.

WYZ001-181300-
YELLOWSTONE NATIONAL PARK

CITY           SKY/WX    TMP DP  RH WIND       PRES   REMARKS
LK YELLOWSTONE   N/A     43  39  86 CALM      30.16R
6HR MIN TEMP:  40; 6HR MAX TEMP:  43;

W YELLOWSTONE  NOT AVBL

$$
WYZ002>013-054>058-071-098>099-181300-
NORTHERN WYOMING

CITY           SKY/WX    TMP DP  RH WIND       PRES   REMARKS
JACKSON        CLOUDY    48  41  76 CALM      30.06F
CODY             N/A    N/A N/A N/A MISG        N/A
GREYBULL       PTCLDY    54  45  71 SE3       29.88F
6HR MIN TEMP:  53; 6HR MAX TEMP:  61;

WORLAND        MOCLDY    52  45  77 CALM      29.89F
6HR MIN TEMP:  49; 6HR MAX TEMP:  59;

SHERIDAN       PTCLDY    53  46  77 N5        29.84F
6HR MIN TEMP:  52; 6HR MAX TEMP:  69;

BUFFALO        PTCLDY    62  41  46 SE12      29.92F
6HR MIN TEMP:  57; 6HR MAX TEMP:  66; 6HR PCP: TRACE;

GILLETTE       PTCLDY    60  49  66 S15       29.90S
6HR MIN TEMP:  59; 6HR MAX TEMP:  64;

HULETT         FAIR      57  46  67 MISG      29.91
NEWCASTLE      FAIR      50  46  87 E3        29.94

$$
WYZ014>020-022>026-101>103-181300-
CENTRAL WYOMING

CITY           SKY/WX    TMP DP  RH WIND       PRES   REMARKS
BIG PINEY      MOCLDY    40  37  89 CALM      30.14S
6HR MIN TEMP:  39; 6HR MAX TEMP:  46;

PINEDALE       PTSUNNY   36  36 100 W5        30.14S WCI  32
DUBOIS         FAIR      45  36  70 NW10      30.12S
LANDER         MOCLDY    56  38  50 CALM      30.00S
6HR MIN TEMP:  51; 6HR MAX TEMP:  65;

RIVERTON       MOCLDY    52  41  66 W8        30.01S
6HR MIN TEMP:  52; 6HR MAX TEMP:  62;

CASPER         CLEAR     45  36  70 SW6       30.01S
6HR MIN TEMP:  44; 6HR MAX TEMP:  55;

DOUGLAS        CLEAR     43  39  86 CALM      30.01R
6HR MIN TEMP:  43; 6HR MAX TEMP:  55;


$$
WYZ021-027>030-104>119-181300-
SOUTHERN WYOMING

CITY           SKY/WX    TMP DP  RH WIND       PRES   REMARKS
EVANSTON       PTCLDY    56  36  47 S8        30.12S
6HR MIN TEMP:  56; 6HR MAX TEMP:  63;

KEMMERER       PTSUNNY   45  37  76 N9        30.13S
FORT BRIDGER   FAIR      55  37  50 CALM      30.14S
ROCK SPRINGS   MOCLDY    51  34  52 SE5       30.11S
6HR MIN TEMP:  49; 6HR MAX TEMP:  63;

DIXON          FAIR      49  38  66 E3        30.15S
RAWLINS        PTCLDY    43  36  76 CALM      30.13S
6HR MIN TEMP:  43; 6HR MAX TEMP:  56;

SARATOGA       FAIR      46  37  71 CALM      30.16S
LARAMIE        CLEAR     43  35  73 S7        30.17S
6HR MIN TEMP:  41; 6HR MAX TEMP:  48;

CHEYENNE       CLEAR     53  39  59 W14       30.08S
6HR MIN TEMP:  52; 6HR MAX TEMP:  56;

TORRINGTON     CLEAR     47  44  90 CALM      29.95F
6HR MIN TEMP:  47; 6HR MAX TEMP:  54;

PINE BLUFFS    FAIR      43  39  87 SW5       30.02S

$$



USA.gov is the U.S. government's official web portal to all federal, state and local government web resources and services.